• Join FlightAware (Why Join?)
  • Login
  • US Flag GB Flag 
11:32 EST


 

Airport Tracker/Info


-or-


 

Live Flight TrackerFlight Track Log ✈ FLG4222 ✈ 02-Dec-2013 ✈ KBGM - KDTW

Flight Track Log - Related Links

Times and Time Zones

All times are in EST time to prevent confusion due to time zone crossing. See the FLG4222 flight status page for this flight to view local times or setup timezone preferences in your user account.

Time Position Orientation Groundspeed Altitude Reporting Facility
EST Latitude Longitude Course Direction KTS MPH feet Rate Location/Type
11:46 42.1428 -76.0150 229° Southwest 187 215 5,500  Level New York Center
11:47 42.1678 -76.1064 290° West 198 228 7,800 2,450 Climbing New York Center
11:48 42.1972 -76.1956 294° West 224 258 10,400 1,850 Climbing New York Center
11:49 42.2131 -76.3033 281° West 268 308 11,500 1,541 Climbing New York Center
11:50 42.1967 -76.3936 256° West 309 356 13,200 1,676 Climbing Cleveland Center
11:51 42.1775 -76.5067 257° West 309 356 14,600 919 Climbing Cleveland Center
11:52 42.1886 -76.6289 277° West 331 381 15,100 634 Climbing Cleveland Center
11:53 42.1992 -76.7644 276° West 356 410 15,900 927 Climbing Cleveland Center
11:54 42.2122 -76.9358 276° West 384 442 17,000 1,113 Climbing Cleveland Center
11:55 42.2239 -77.0819 276° West 390 449 18,200 1,161 Climbing Cleveland Center
11:56 42.2350 -77.2275 276° West 390 449 19,400 1,171 Climbing Cleveland Center
11:57 42.2458 -77.3767 276° West 396 456 20,600 1,171 Climbing Cleveland Center
11:58 42.2581 -77.5267 276° West 400 460 21,800 1,210 Climbing Cleveland Center
11:59 42.2683 -77.6761 275° West 398 458 23,100 1,210 Climbing Cleveland Center
12:00 42.2786 -77.8253 275° West 396 456 24,300 1,161 Climbing Cleveland Center
12:01 42.2889 -77.9717 275° West 392 451 25,500 823 Climbing Cleveland Center
12:02 42.2986 -78.1164 275° West 387 445 26,000 242 Climbing Cleveland Center
12:03 42.3097 -78.2942 275° West 394 453 26,000  Level Cleveland Center
12:04 42.3194 -78.4411 275° West 393 452 26,000  Level Cleveland Center
12:05 42.3281 -78.5864 275° West 390 449 26,000  Level Cleveland Center
12:06 42.3375 -78.7311 275° West 388 447 26,000  Level Cleveland Center
12:07 42.3458 -78.8767 274° West 388 447 26,000  Level Cleveland Center
12:09 42.3550 -79.0194 275° West 385 443 26,000  Level Cleveland Center
12:10 42.3656 -79.1919 275° West 387 445 26,000  Level Cleveland Center
12:11 42.3736 -79.3347 274° West 385 443 26,000  Level Cleveland Center
12:12 42.3814 -79.4792 274° West 387 445 26,000  Level Cleveland Center
12:13 42.3894 -79.6236 274° West 388 447 26,000  Level Cleveland Center
12:14 42.3969 -79.7678 274° West 387 445 26,000  Level Cleveland Center
12:15 42.4042 -79.9108 274° West 386 444 26,000  Level Cleveland Center
12:16 42.4119 -80.0733 274° West 396 456 26,000  Level Cleveland Center
12:17 42.4189 -80.2167 274° West 388 447 26,000  Level Cleveland Center
12:18 42.4269 -80.3889 274° West 390 449 26,000  Level Cleveland Center
12:19 42.4322 -80.5347 273° West 388 447 26,000  Level Cleveland Center
12:20 42.4400 -80.6808 274° West 389 448 26,000  Level Cleveland Center
12:21 42.4469 -80.8303 274° West 394 453 26,000  Level Cleveland Center
12:22 42.4533 -80.9758 273° West 386 444 26,000 -339 Level Cleveland Center
12:23 42.4597 -81.1231 273° West 387 445 25,300 -823 Descending Cleveland Center
12:24 42.4656 -81.2689 273° West 386 444 24,300 -726 Descending Cleveland Center
12:25 42.4711 -81.4375 273° West 383 441 23,800 -968 Descending Cleveland Center
12:26 42.4767 -81.5753 273° West 369 425 22,300 -1,452 Descending Cleveland Center
12:27 42.4814 -81.7078 273° West 354 407 20,800 -1,452 Descending Cleveland Center
12:28 42.4856 -81.8369 273° West 354 407 19,300 -1,452 Descending Cleveland Center
12:29 42.4908 -81.9611 273° West 336 387 17,800 -1,452 Descending Cleveland Center
12:30 42.4944 -82.0819 272° West 325 374 16,300 -1,600 Descending Cleveland Center
12:31 42.4989 -82.2200 273° West 315 362 14,600 -1,742 Descending Cleveland Center
12:31 42.4983 -82.2239 259° West 317 365 14,500 -1,455 Descending Cleveland Center
12:32 42.5028 -82.3403 273° West 313 360 13,000 -1,481 Descending Cleveland Center
12:33 42.5031 -82.3733 271° West 310 357 12,600 -952 Descending Cleveland Center
12:33 42.5047 -82.4567 272° West 311 358 12,000 -590 Descending Cleveland Center
12:34 42.5078 -82.4900 277° West 310 357 12,000  Level Cleveland Center
12:34 42.4978 -82.5761 261° West 322 371 12,000  Level Cleveland Center
12:35 42.4842 -82.6142 244° Southwest 331 381 12,000 -484 Level Cleveland Center
12:35 42.4581 -82.6886 245° Southwest 332 382 11,500 -806 Descending Cleveland Center
12:36 42.4375 -82.7411 242° Southwest 353 406 11,100 -484 Descending Cleveland Center
12:36 42.4147 -82.8103 246° West 350 403 11,000 -98 Descending Cleveland Center
12:37 42.3975 -82.8600 245° Southwest 358 412 11,000  Level Cleveland Center
12:37 42.3642 -82.9522 244° Southwest 351 404 11,000  Level Cleveland Center
12:38 42.3578 -82.9706 245° Southwest 350 403 11,000  Level Cleveland Center
12:38 42.3219 -83.0686 244° Southwest 347 399 11,000  Level Cleveland Center
12:39 42.3131 -83.0914 242° Southwest 335 386 11,000  Level Cleveland Center
12:40 42.2836 -83.1489 235° Southwest 256 295 11,000  Level Cleveland Center
12:40 42.2725 -83.1564 207° Southwest 210 242 11,000 -348 Level Cleveland Center
12:41 42.2197 -83.1914 206° Southwest 191 220 10,600 -1,034 Descending Cleveland Center
12:42 42.1731 -83.2244 208° Southwest 199 229 9,000 -1,795 Descending Cleveland Center
12:43 42.1267 -83.2533 205° Southwest 198 228 7,100 -1,890 Descending Cleveland Center
12:43 42.1114 -83.2636 207° Southwest 199 229 6,700 -1,645 Descending Cleveland Center
12:44 42.0781 -83.2856 206° Southwest 195 224 5,400 -1,770 Descending Cleveland Center
12:44 42.0650 -83.2939 205° Southwest 190 219 4,900 -1,355 Descending Cleveland Center
12:45 42.0244 -83.3261 211° Southwest 195 224 4,000 -982 Descending Cleveland Center
12:45 42.0225 -83.3300 236° Southwest 196 226 4,000 -484 Level Cleveland Center
12:46 42.0169 -83.3931 263° West 199 229 3,500 -492 Descending Cleveland Center
12:46 42.0153 -83.3964 236° Southwest 192 221 3,500 -421 Level Cleveland Center
12:47 42.0433 -83.4369 313° West 174 200 3,100 -400 Descending Cleveland Center
12:47 42.0428 -83.4381 236° Southwest 178 205 3,100 -90 Level Cleveland Center
12:48 42.0878 -83.4311 North 170 196 3,000 -378 Descending Cleveland Center
12:49 42.1256 -83.4036 28° Northeast 152 175 2,400 -677 Descending Cleveland Center
12:49 42.1278 -83.4017 33° Northeast 168 193 2,300 -806 Descending Cleveland Center
12:50 42.1636 -83.3753 29° Northeast 138 159 1,500 -774 Descending Cleveland Center
12:50 42.1622 -83.3775 230° Southwest 153 176 1,500 -600 Level Cleveland Center
12:51 42.1936 -83.3525 31° Northeast 141 162 800 -677 Descending Cleveland Center